Location: Bridgewater
(44.3670°N, 64.5170°W)
Time: 07:22:06
(UTC-03:00)

Amateur Radio Satellites - All Passes

Search period start: 28 May 2017 06:52
Search period end: 29 May 2017 06:52
Location: Bridgewater, 44.3670°N, 64.5170°W

Satellite Date Start Highest point End Downlink Frequencies (MHz)
Time Altitude Azimuth
XW-2D 28 May 07:14:50 07:18:37 50° 99° (E) 07:22:21 145.860 - 145.880
XW-2B 28 May 07:22:48 07:26:38 61° 100° (E) 07:30:25 145.730 - 145.750
M-CUBED/EXP-1 PRIME 28 May 07:22:50 07:24:45 13° 58° (ENE) 07:26:38 437.505
NO-84 28 May 07:24:55 07:25:43 10° 122° (ESE) 07:26:30 435.350 FM
STRAND 1 28 May 07:25:01 07:29:58 53° 71° (ENE) 07:34:57 437.568
SO-50 28 May 07:25:32 07:30:05 85° 234° (SW) 07:34:37 436.795
NUDT-PHONESAT 28 May 07:28:07 07:31:50 54° 100° (E) 07:35:32 437.300
XW-2F 28 May 07:34:11 07:38:03 82° 102° (ESE) 07:41:52 145.980 - 146.000
DOVE 4 28 May 07:35:28 07:39:33 54° 286° (WNW) 07:43:43 437.250
XW-2C 28 May 07:36:31 07:40:25 89° 283° (WNW) 07:44:15 145.795 - 145.815
KAITUO 1B 28 May 07:38:57 07:42:46 76° 102° (ESE) 07:46:32 145.475/437.950
BEESAT 2 28 May 07:44:52 07:48:12 25° 317° (NW) 07:51:34 435.950
HO-68 28 May 07:50:10 07:56:11 28° 93° (E) 08:02:09 435.675
AO-7 28 May 07:56:26 08:00:43 15° 318° (NW) 08:05:01 .
SEEDS 28 May 08:01:46 08:04:24 16° 91° (E) 08:07:01 437.485
BEESAT 3 28 May 08:04:45 08:05:22 10° 329° (NNW) 08:05:58 437.485
CUBEBUG 2 28 May 08:10:30 08:13:35 17° 91° (E) 08:16:41 437.445
CUTE-I 28 May 08:12:21 08:17:38 63° 288° (WNW) 08:22:54 437.470
LilacSat-2 28 May 08:17:00 08:20:24 29° 291° (WNW) 08:23:45 437.200
UWE-3 28 May 08:18:10 08:20:11 13° 89° (E) 08:22:12 435.000/436.395/437.385
CUTE 1.7 + AOD 2 28 May 08:50:11 08:54:29 84° 100° (E) 08:58:44 437.475
XW-2D 28 May 08:50:21 08:52:23 14° 296° (WNW) 08:54:24 145.860 - 145.880
M-CUBED/EXP-1 PRIME 28 May 08:54:40 08:58:50 65° 253° (WSW) 09:02:41 437.505
AAUSAT CUBESAT 2 28 May 08:55:31 08:59:08 28° 95° (E) 09:02:43 437.432
NO-84 28 May 08:58:18 09:02:39 64° 138° (SE) 09:06:54 435.350 FM
XW-2B 28 May 08:58:49 09:00:19 12° 298° (WNW) 09:01:48 145.730 - 145.750
PRISM 28 May 09:03:16 09:05:36 15° 62° (ENE) 09:07:57 437.425
NUDT-PHONESAT 28 May 09:03:36 09:05:17 13° 297° (WNW) 09:06:57 437.300
FO-29 28 May 09:03:52 09:07:10 17° 58° (ENE) 09:10:34 435.910
XW-2A 28 May 09:04:52 09:08:19 65° 285° (WNW) 09:11:43 145.665 - 145.685
STRAND 1 28 May 09:05:46 09:09:28 20° 268° (W) 09:13:12 437.568
RS-15 28 May 09:05:59 09:17:02 36° 25° (NNE) 09:27:43 29.354- 29.394
AO-73 28 May 09:11:14 09:14:54 23° 93° (E) 09:18:32 145.935
ZACube-1 28 May 09:25:54 09:30:07 35° 97° (E) 09:34:19 437.345
UNISAT 6 28 May 09:26:42 09:29:54 21° 64° (ENE) 09:33:10 437.425
SEEDS 28 May 09:36:17 09:40:21 47° 288° (WNW) 09:44:21 437.485
HO-68 28 May 09:37:15 09:44:21 61° 292° (WNW) 09:51:23 435.675
CUBEBUG 2 28 May 09:45:59 09:50:28 53° 287° (WNW) 09:55:02 437.445
UWE-3 28 May 09:52:30 09:57:06 73° 286° (WNW) 10:01:45 435.000/436.395/437.385
EO-88 28 May 10:11:29 10:13:21 13° 91° (E) 10:15:11 145.990 - 145.960
Oscar 11 28 May 10:17:59 10:22:22 88° 109° (ESE) 10:26:43 .
CUTE 1.7 + AOD 2 28 May 10:28:35 10:29:39 11° 300° (WNW) 10:30:42 437.475
TIGRISAT 28 May 10:29:40 10:33:57 84° 74° (ENE) 10:38:20 435.000
AAUSAT CUBESAT 2 28 May 10:31:04 10:34:30 26° 293° (WNW) 10:37:54 437.432
DELFI C3 28 May 10:33:18 10:36:55 35° 97° (E) 10:40:31 145.870
PRISM 28 May 10:36:24 10:40:27 55° 259° (W) 10:44:31 437.425
NO-84 28 May 10:36:36 10:40:31 32° 336° (NNW) 10:44:17 435.350 FM
FO-29 28 May 10:46:31 10:51:39 68° 258° (WSW) 10:57:02 435.910
AO-73 28 May 10:47:00 10:51:13 38° 290° (WNW) 10:55:27 145.935
UNISAT 6 28 May 11:02:19 11:06:20 40° 262° (W) 11:10:29 437.425
ZACube-1 28 May 11:02:28 11:06:13 26° 293° (WNW) 11:09:59 437.345
YUBILEINY 28 May 11:07:43 11:14:17 22° 61° (ENE) 11:20:48 435.215
EO-79 28 May 11:09:24 11:12:14 18° 64° (ENE) 11:15:06 145.935-145.965
AIST 2D 28 May 11:14:05 11:17:14 31° 71° (ENE) 11:20:25 435.315
RS-15 28 May 11:19:22 11:31:43 81° 54° (NE) 11:43:25 29.354- 29.394
HO-68 28 May 11:27:17 11:30:39 14° 313° (NW) 11:34:01 435.675
EO-88 28 May 11:43:44 11:47:16 43° 287° (WNW) 11:50:45 145.990 - 145.960
NANOSAT C BR1 28 May 11:52:04 11:56:01 44° 71° (ENE) 12:00:02 145.865
Oscar 11 28 May 11:56:49 11:57:48 11° 301° (WNW) 11:58:46 .
POLYITAN 1 28 May 11:58:14 12:02:20 57° 73° (ENE) 12:06:30 437.675
DUCHIFAT 1 28 May 12:01:39 12:05:40 50° 72° (ENE) 12:09:44 145.980
QB50P2 28 May 12:06:56 12:11:08 78° 74° (ENE) 12:15:21 145.880/145.840
DELFI C3 28 May 12:08:37 12:11:29 19° 294° (WNW) 12:14:19 145.870
BUGSAT 1 28 May 12:13:20 12:16:23 21° 66° (ENE) 12:19:26 437.445
NO-84 28 May 12:16:08 12:19:06 18° 356° (N) 12:21:57 435.350 FM
LO-87 28 May 12:20:33 12:24:06 65° 101° (ESE) 12:27:38 145.935 - 145.965
ESTCUBE 1 28 May 12:26:06 12:30:23 41° 98° (E) 12:34:37 437.505/2401.250
EO-79 28 May 12:43:39 12:47:40 45° 261° (W) 12:51:43 145.935-145.965
AIST 2D 28 May 12:48:11 12:50:31 17° 267° (W) 12:52:53 435.315
SPROUT 28 May 12:53:51 12:57:09 21° 93° (E) 13:00:26 437.525
Gurwin Techsat 1B 28 May 12:55:33 12:59:07 19° 60° (ENE) 13:02:40 435.225
BEESAT 3 28 May 13:01:15 13:04:16 20° 41° (NE) 13:07:16 437.485
Oscar 19 28 May 13:01:20 13:05:52 31° 65° (ENE) 13:10:24 437.125/150
AO-85 28 May 13:03:02 13:06:56 48° 51° (NE) 13:11:01 145.980
YUBILEINY 28 May 13:03:26 13:12:20 88° 267° (W) 13:21:11 435.215
VELOX 1 28 May 13:13:42 13:17:41 33° 97° (E) 13:21:38 145.980
50 SAT 28 May 13:20:57 13:23:18 17° 94° (E) 13:25:38 437.505
AO-7 28 May 13:22:22 13:26:37 15° 41° (NE) 13:30:52 .
NANOSAT C BR1 28 May 13:29:12 13:31:58 17° 268° (W) 13:34:44 145.865
UKube-1 28 May 13:32:47 13:34:45 13° 90° (E) 13:36:42 .
RS-15 28 May 13:33:01 13:42:52 31° 257° (WSW) 13:52:23 29.354- 29.394
POLYITAN 1 28 May 13:36:26 13:38:30 13° 270° (W) 13:40:34 437.675
DUCHIFAT 1 28 May 13:39:14 13:41:39 15° 269° (W) 13:44:04 145.980
O/OREOS (USA 219) 28 May 13:43:04 13:47:33 57° 63° (ENE) 13:51:58 437.305
DX 1 28 May 13:43:13 13:46:46 24° 95° (E) 13:50:17 434.975-435.025
BUGSAT 1 28 May 13:47:55 13:51:32 33° 263° (W) 13:55:13 437.445
NO-84 28 May 13:54:25 13:57:48 24° 18° (NNE) 14:00:56 435.350 FM
ESTCUBE 1 28 May 14:03:28 14:06:55 22° 296° (WNW) 14:10:22 437.505/2401.250
ITAMSAT 1 28 May 14:09:52 14:12:10 13° 56° (NE) 14:14:27 435.822/435.867
BEESAT 2 28 May 14:22:32 14:26:25 41° 49° (NE) 14:30:15 435.950
SPROUT 28 May 14:29:13 14:33:10 36° 290° (WNW) 14:37:05 437.525
Gurwin Techsat 1B 28 May 14:33:13 14:38:30 69° 258° (WSW) 14:43:49 435.225
BEESAT 3 28 May 14:38:14 14:42:10 54° 240° (WSW) 14:46:02 437.485
Oscar 19 28 May 14:40:18 14:45:05 36° 263° (W) 14:49:53 437.125/150
AO-85 28 May 14:44:12 14:47:01 18° 247° (WSW) 14:49:55 145.980
VELOX 1 28 May 14:50:23 14:53:59 25° 294° (WNW) 14:57:34 145.980
50 SAT 28 May 14:53:16 14:56:11 27° 291° (WNW) 14:59:06 437.505
YUBILEINY 28 May 15:02:10 15:07:49 19° 284° (WNW) 15:13:28 435.215
UKube-1 28 May 15:06:55 15:11:11 63° 288° (WNW) 15:15:25 .
AO-7 28 May 15:09:36 15:17:37 57° 64° (ENE) 15:25:42 .
DX 1 28 May 15:19:06 15:22:59 33° 292° (WNW) 15:26:51 434.975-435.025
O/OREOS (USA 219) 28 May 15:23:51 15:26:27 15° 261° (W) 15:29:01 437.305
BEESAT 28 May 15:26:17 15:29:50 20° 93° (E) 15:33:22 436.000
NO-84 28 May 15:31:56 15:35:50 87° 211° (SSW) 15:39:20 435.350 FM
ITAMSAT 1 28 May 15:45:39 15:50:49 85° 74° (ENE) 15:56:02 435.822/435.867
BEESAT 2 28 May 16:00:49 16:03:55 21° 247° (WSW) 16:07:00 435.950
MOZHAYETS 4 28 May 16:26:57 16:31:28 47° 99° (E) 16:35:56
ITUPSAT 1 28 May 16:30:55 16:35:46 84° 103° (ESE) 16:40:35 437.325
BEESAT 28 May 17:03:14 17:07:51 48° 290° (WNW) 17:12:26 436.000
AO-7 28 May 17:03:18 17:10:42 35° 263° (W) 17:18:11 .
KKS-1 28 May 17:05:53 17:08:52 17° 92° (E) 17:11:51 437.445
DOVE 4 28 May 17:06:13 17:09:18 19° 65° (ENE) 17:12:18 437.250
NO-84 28 May 17:11:48 17:12:39 11° 238° (WSW) 17:13:30 435.350 FM
CUBESAT XI-V 28 May 17:18:48 17:22:54 30° 95° (E) 17:26:57 437.345
LilacSat-2 28 May 17:27:13 17:29:28 15° 64° (ENE) 17:31:44 437.200
ITAMSAT 1 28 May 17:28:48 17:30:56 12° 272° (W) 17:33:06 435.822/435.867
STARS 28 May 17:31:20 17:33:37 14° 91° (E) 17:35:55 437.465
CUTE-I 28 May 17:56:32 18:01:18 35° 66° (ENE) 18:06:05 437.470
XW-2D 28 May 17:57:34 18:00:56 30° 70° (ENE) 18:04:21 145.860 - 145.880
MOZHAYETS 4 28 May 18:04:52 18:08:17 21° 296° (WNW) 18:11:42
XW-2B 28 May 18:05:25 18:08:56 36° 71° (ENE) 18:12:28 145.730 - 145.750
NUDT-PHONESAT 28 May 18:08:54 18:12:12 30° 70° (ENE) 18:15:32 437.300
ITUPSAT 1 28 May 18:10:36 18:12:55 14° 302° (WNW) 18:15:13 437.325
PCSat 28 May 18:16:09 18:19:25 16° 104° (ESE) 18:22:42 145.827
XW-2F 28 May 18:16:15 18:19:54 46° 73° (ENE) 18:23:36 145.980 - 146.000
XW-2C 28 May 18:18:57 18:22:39 53° 74° (ENE) 18:26:26 145.795 - 145.815
KAITUO 1B 28 May 18:20:11 18:23:46 42° 72° (ENE) 18:27:23 145.475/437.950
HO-68 28 May 18:21:10 18:26:53 26° 57° (ENE) 18:32:36 435.675
KKS-1 28 May 18:41:24 18:45:41 48° 289° (WNW) 18:49:57 437.445
DOVE 4 28 May 18:42:21 18:46:44 46° 261° (W) 18:50:55 437.250
SEEDS 28 May 18:55:23 18:57:47 15° 63° (ENE) 19:00:13 437.485
CUBESAT XI-V 28 May 18:56:11 19:00:14 30° 293° (WNW) 19:04:14 437.345
LilacSat-2 28 May 18:59:40 19:03:22 46° 261° (W) 19:07:07 437.200
STARS 28 May 19:06:01 19:10:20 60° 288° (WNW) 19:14:40 437.465
CUBEBUG 2 28 May 19:10:51 19:13:28 16° 63° (ENE) 19:16:07 437.445
UWE-3 28 May 19:17:35 19:19:13 12° 60° (ENE) 19:20:51 435.000/436.395/437.385
XW-2D 28 May 19:32:17 19:35:10 20° 267° (W) 19:38:06 145.860 - 145.880
STRAND 1 28 May 19:35:02 19:38:09 16° 90° (E) 19:41:15 437.568
CUTE-I 28 May 19:36:36 19:41:20 33° 264° (W) 19:46:06 437.470
XW-2A 28 May 19:37:24 19:40:39 48° 73° (ENE) 19:43:56 145.665 - 145.685
ISS 28 May 19:39:24 19:41:28 16° 133° (SE) 19:43:33 437.550
XW-2B 28 May 19:40:39 19:43:15 17° 268° (W) 19:45:52 145.730 - 145.750
NUDT-PHONESAT 28 May 19:43:24 19:46:09 19° 267° (W) 19:48:55 437.300
CUTE 1.7 + AOD 2 28 May 19:43:50 19:48:06 71° 75° (ENE) 19:52:23 437.475
AAUSAT CUBESAT 2 28 May 19:47:09 19:50:32 24° 67° (ENE) 19:53:56 437.432
XW-2F 28 May 19:52:23 19:54:18 13° 270° (W) 19:56:15 145.980 - 146.000
XW-2C 28 May 19:55:40 19:57:11 12° 270° (W) 19:58:43 145.795 - 145.815
KAITUO 1B 28 May 19:55:51 19:58:00 15° 269° (W) 20:00:09 145.475/437.950
PCSat 28 May 19:56:43 20:02:08 77° 302° (WNW) 20:07:37 145.827
HO-68 28 May 20:06:50 20:13:59 71° 256° (WSW) 20:21:12 435.675
AO-73 28 May 20:08:33 20:11:46 21° 65° (ENE) 20:15:02 145.935
Tancredo 1 28 May 20:20:46 20:23:47 56° 145° (SE) 20:26:49 437.200
ZACube-1 28 May 20:23:15 20:27:01 32° 69° (ENE) 20:30:54 437.345
SEEDS 28 May 20:28:50 20:33:01 58° 260° (W) 20:37:14 437.485
CUBEBUG 2 28 May 20:45:36 20:49:40 51° 261° (W) 20:53:51 437.445
UWE-3 28 May 20:50:50 20:55:02 75° 258° (WSW) 20:59:22 435.000/436.395/437.385
STRAND 1 28 May 21:12:40 21:17:48 68° 287° (WNW) 21:22:55 437.568
Oscar 11 28 May 21:13:48 21:18:09 81° 74° (ENE) 21:22:31 .
ISS 28 May 21:14:18 21:17:36 77° 330° (NNW) 21:20:54 437.550
DELFI C3 28 May 21:20:14 21:23:34 26° 68° (ENE) 21:26:53 145.870
AAUSAT CUBESAT 2 28 May 21:22:07 21:25:51 31° 264° (W) 21:29:37 437.432
CUTE 1.7 + AOD 2 28 May 21:23:05 21:24:24 11° 272° (W) 21:25:44 437.475
SO-50 28 May 21:42:11 21:45:34 21° 112° (ESE) 21:48:57 436.795
PCSat 28 May 21:42:58 21:46:28 17° 324° (NW) 21:49:58 145.827
AO-73 28 May 21:43:47 21:47:44 39° 263° (W) 21:51:50 145.935
FO-29 28 May 21:53:19 21:57:26 17° 89° (E) 22:01:45 435.910
Tancredo 1 28 May 21:56:55 21:59:41 29° 343° (NNW) 22:02:27 437.200
ZACube-1 28 May 21:59:51 22:03:20 24° 266° (W) 22:06:54 437.345
HO-68 28 May 22:00:19 22:02:57 12° 275° (W) 22:05:37 435.675
M-CUBED/EXP-1 PRIME 28 May 22:06:01 22:09:17 62° 107° (ESE) 22:12:30 437.505
PRISM 28 May 22:16:55 22:19:36 17° 93° (E) 22:22:15 437.425
TIGRISAT 28 May 22:20:15 22:23:13 17° 91° (E) 22:26:12 435.000
EO-88 28 May 22:22:24 22:26:04 84° 258° (WSW) 22:29:46 145.990 - 145.960
ISS 28 May 22:51:39 22:54:28 25° 349° (N) 22:57:17 437.550
UNISAT 6 28 May 22:51:42 22:56:00 36° 97° (E) 23:00:19 437.425
DELFI C3 28 May 22:54:52 22:58:16 26° 265° (W) 23:01:40 145.870
STRAND 1 28 May 22:55:16 22:56:01 10° 306° (NW) 22:56:46 437.568
LO-87 28 May 22:58:11 23:01:21 32° 71° (ENE) 23:04:32 145.935 - 145.965
SO-50 28 May 23:21:14 23:25:42 52° 310° (NW) 23:30:09 436.795
ESTCUBE 1 28 May 23:26:50 23:31:09 45° 71° (ENE) 23:35:30 437.505/2401.250
Tancredo 1 28 May 23:33:40 23:36:04 20° 3° (N) 23:38:29 437.200
FO-29 28 May 23:36:31 23:43:04 89° 102° (ESE) 23:50:25 435.910
SPROUT 28 May 23:48:55 23:52:04 21° 65° (ENE) 23:55:13 437.525
PRISM 28 May 23:51:14 23:55:05 42° 289° (WNW) 23:58:54 437.425
QB50P2 28 May 23:52:17 23:53:40 11° 89° (E) 23:55:03 145.880/145.840
TIGRISAT 28 May 23:55:42 00:00:13 55° 287° (WNW) 00:04:47 435.000
AIST 2D 29 May 00:10:24 00:13:37 30° 96° (E) 00:16:47 435.315
VELOX 1 29 May 00:12:15 00:16:17 36° 69° (ENE) 00:20:19 145.980
YUBILEINY 29 May 00:12:36 00:18:48 22° 78° (ENE) 00:25:02 435.215
EO-79 29 May 00:26:44 00:30:16 25° 95° (E) 00:33:47 145.935-145.965
UNISAT 6 29 May 00:28:44 00:32:32 26° 294° (WNW) 00:36:22 437.425
UKube-1 29 May 00:28:48 00:31:14 15° 61° (ENE) 00:33:38 .
ISS 29 May 00:28:52 00:31:40 25° 10° (N) 00:34:27 437.550
LO-87 29 May 00:32:34 00:34:53 16° 267° (W) 00:37:12 145.935 - 145.965
DX 1 29 May 00:40:10 00:43:48 27° 66° (ENE) 00:47:27 434.975-435.025
ESTCUBE 1 29 May 01:04:55 01:08:10 19° 268° (W) 01:11:27 437.505/2401.250
SO-50 29 May 01:05:28 01:07:12 12° 331° (NNW) 01:08:55 436.795
Tancredo 1 29 May 01:09:26 01:12:22 40° 23° (NNE) 01:15:17 437.200
NANOSAT C BR1 29 May 01:09:51 01:14:06 66° 102° (ESE) 01:18:20 145.865
POLYITAN 1 29 May 01:16:46 01:21:05 87° 99° (E) 01:25:23 437.675
DUCHIFAT 1 29 May 01:19:10 01:23:25 75° 102° (ESE) 01:27:40 145.980
FO-29 29 May 01:23:07 01:27:29 19° 301° (WNW) 01:32:09 435.910
SPROUT 29 May 01:23:46 01:27:43 39° 262° (W) 01:31:43 437.525
QB50P2 29 May 01:25:39 01:29:55 70° 286° (WNW) 01:34:10 145.880/145.840
50 SAT 29 May 01:26:14 01:29:38 60° 259° (WSW) 01:33:04 437.505
BUGSAT 1 29 May 01:27:32 01:31:09 28° 96° (E) 01:34:47 437.445
RS-15 29 May 01:43:58 01:55:03 45° 109° (ESE) 02:06:23 29.354- 29.394
AIST 2D 29 May 01:44:07 01:46:36 18° 293° (WNW) 01:49:05 435.315
VELOX 1 29 May 01:49:19 01:52:49 23° 266° (W) 01:56:19 145.980
EO-79 29 May 02:02:16 02:06:02 31° 292° (WNW) 02:09:49 145.935-145.965
UKube-1 29 May 02:02:31 02:06:46 61° 259° (WSW) 02:11:03 .
ITUPSAT 1 29 May 02:03:48 02:06:33 15° 60° (ENE) 02:09:20 437.325
ISS 29 May 02:05:15 02:08:34 73° 29° (NNE) 02:11:50 437.550
YUBILEINY 29 May 02:05:47 02:14:31 82° 279° (W) 02:23:22 435.215
DX 1 29 May 02:16:02 02:19:53 31° 263° (W) 02:23:45 434.975-435.025
BEESAT 29 May 02:34:00 02:38:03 29° 66° (ENE) 02:42:09 436.000
Tancredo 1 29 May 02:45:19 02:48:03 30° 220° (SW) 02:50:46 437.200
NANOSAT C BR1 29 May 02:47:12 02:49:17 13° 299° (WNW) 02:51:21 145.865
Gurwin Techsat 1B 29 May 02:47:49 02:52:51 41° 98° (E) 02:57:51 435.225
Oscar 19 29 May 02:49:35 02:54:45 70° 103° (ESE) 02:59:51 437.125/150
POLYITAN 1 29 May 02:55:13 02:56:11 11° 301° (WNW) 02:57:10 437.675
DUCHIFAT 1 29 May 02:56:52 02:58:30 12° 300° (WNW) 03:00:08 145.980
PCSat 29 May 03:00:14 03:04:36 24° 42° (NE) 03:08:55 145.827
BUGSAT 1 29 May 03:02:57 03:06:26 26° 292° (WNW) 03:09:55 437.445
AO-7 29 May 03:11:40 03:15:45 14° 87° (E) 03:19:50 .
MOZHAYETS 4 29 May 03:30:02 03:34:31 53° 72° (ENE) 03:39:03
ITUPSAT 1 29 May 03:39:02 03:43:48 71° 258° (WSW) 03:48:37 437.325
ISS 29 May 03:42:34 03:44:43 16° 226° (SW) 03:46:50 437.550
RS-15 29 May 03:55:02 04:07:09 65° 313° (NW) 04:19:30 29.354- 29.394
O/OREOS (USA 219) 29 May 03:56:45 04:01:10 49° 108° (ESE) 04:05:36 437.305
ITAMSAT 1 29 May 03:57:17 04:01:38 26° 94° (E) 04:05:57 435.822/435.867
KKS-1 29 May 04:05:27 04:08:45 21° 64° (ENE) 04:12:02 437.445
YUBILEINY 29 May 04:07:03 04:12:52 19° 302° (WNW) 04:18:44 435.215
BEESAT 29 May 04:11:24 04:15:43 34° 263° (W) 04:20:05 436.000
CUBESAT XI-V 29 May 04:23:19 04:27:36 36° 69° (ENE) 04:31:55 437.345
Gurwin Techsat 1B 29 May 04:28:07 04:32:37 29° 296° (WNW) 04:37:06 435.225
STARS 29 May 04:29:30 04:32:12 16° 62° (ENE) 04:34:55 437.465
Oscar 19 29 May 04:30:11 04:33:30 17° 301° (WNW) 04:36:48 437.125/150
BEESAT 3 29 May 04:30:34 04:32:58 16° 111° (ESE) 04:35:24 437.485
PCSat 29 May 04:43:05 04:48:30 68° 243° (WSW) 04:53:52 145.827
AO-85 29 May 04:58:53 05:03:02 90° 138° (SE) 05:07:01 145.980
AO-7 29 May 05:01:33 05:09:56 72° 106° (ESE) 05:18:17 .
MOZHAYETS 4 29 May 05:09:01 05:12:01 17° 269° (W) 05:15:00
ITAMSAT 1 29 May 05:36:20 05:41:15 43° 291° (WNW) 05:46:08 435.822/435.867
O/OREOS (USA 219) 29 May 05:37:21 05:40:51 21° 307° (NW) 05:44:21 437.305
KKS-1 29 May 05:40:49 05:45:01 42° 261° (W) 05:49:14 437.445
BEESAT 2 29 May 05:52:26 05:56:11 41° 118° (ESE) 05:59:59 435.950
CUBESAT XI-V 29 May 06:01:06 06:05:02 26° 266° (W) 06:08:58 437.345
STARS 29 May 06:03:51 06:08:07 55° 259° (W) 06:12:24 437.465
BEESAT 3 29 May 06:06:14 06:10:08 53° 309° (NW) 06:14:05 437.485
SO-50 29 May 06:10:42 06:14:46 32° 45° (NE) 06:18:50 436.795
RS-15 29 May 06:12:05 06:22:42 32° 343° (NNW) 06:33:18 29.354- 29.394
CUTE-I 29 May 06:13:53 06:15:37 11° 87° (E) 06:17:21 437.470
LilacSat-2 29 May 06:32:02 06:34:35 17° 92° (E) 06:37:06 437.200
DOVE 4 29 May 06:38:58 06:42:50 36° 98° (E) 06:46:49 437.250
AO-85 29 May 06:41:50 06:43:58 14° 324° (NW) 06:46:04 145.980
